Time,TemperatureF,DewpointF,PressureIn,WindDirection,WindDirectionDegrees,WindSpeedMPH,WindSpeedGustMPH,Humidity,HourlyPrecipIn,Conditions,Clouds,dailyrainin,SolarRadiationWatts/m^2,SoftwareType,DateUTC
2013-03-17 00:02:00,68.0,43.0,-100.00,SSE,152,8.0,11.0,40,0.00,,,0.00,1.000000,,2013-03-17 07:02:00,
2013-03-17 00:12:00,68.0,43.0,-100.00,SSE,152,8.0,11.0,40,0.00,,,0.00,1.000000,,2013-03-17 07:12:00,
2013-03-17 00:42:00,68.0,37.0,-100.00,SSE,148,11.0,15.0,32,0.00,,,0.00,1.000000,,2013-03-17 07:42:00,
2013-03-17 00:52:00,68.0,37.0,-100.00,SSE,148,11.0,15.0,32,0.00,,,0.00,1.000000,,2013-03-17 07:52:00,
2013-03-17 01:02:00,68.0,37.0,-100.00,SSE,148,11.0,15.0,32,0.00,,,0.00,1.000000,,2013-03-17 08:02:00,
2013-03-17 01:12:00,68.0,37.0,-100.00,SSE,148,11.0,15.0,32,0.00,,,0.00,1.000000,,2013-03-17 08:12:00,
2013-03-17 01:42:00,65.0,43.0,-100.00,SE,144,12.0,16.0,44,0.00,,,0.00,1.000000,,2013-03-17 08:42:00,
2013-03-17 01:52:00,65.0,43.0,-100.00,SE,144,12.0,16.0,44,0.00,,,0.00,1.000000,,2013-03-17 08:52:00,
2013-03-17 02:02:00,65.0,43.0,-100.00,SE,144,12.0,16.0,44,0.00,,,0.00,1.000000,,2013-03-17 09:02:00,
2013-03-17 02:12:00,65.0,43.0,-100.00,SE,144,12.0,16.0,44,0.00,,,0.00,1.000000,,2013-03-17 09:12:00,
2013-03-17 02:43:00,63.0,46.0,-100.00,SE,124,8.0,15.0,53,0.00,,,0.00,1.000000,,2013-03-17 09:43:00,
2013-03-17 02:53:00,63.0,46.0,-100.00,SE,124,8.0,15.0,53,0.00,,,0.00,1.000000,,2013-03-17 09:53:00,
2013-03-17 03:02:00,63.0,46.0,-100.00,SE,124,8.0,15.0,53,0.00,,,0.00,1.000000,,2013-03-17 10:02:00,
2013-03-17 03:12:00,63.0,46.0,-100.00,SE,124,8.0,15.0,53,0.00,,,0.00,1.000000,,2013-03-17 10:12:00,
2013-03-17 03:42:00,61.0,46.0,-100.00,SSW,205,4.0,8.0,58,0.00,,,0.00,1.000000,,2013-03-17 10:42:00,
2013-03-17 03:52:00,61.0,46.0,-100.00,SSW,205,4.0,8.0,58,0.00,,,0.00,1.000000,,2013-03-17 10:52:00,
2013-03-17 04:02:00,61.0,46.0,-100.00,SSW,205,4.0,8.0,58,0.00,,,0.00,1.000000,,2013-03-17 11:02:00,
2013-03-17 04:12:00,61.0,46.0,-100.00,SSW,205,4.0,8.0,58,0.00,,,0.00,1.000000,,2013-03-17 11:12:00,
2013-03-17 04:43:00,60.0,45.0,-100.00,SSW,193,4.0,9.0,58,0.00,,,0.00,1.000000,,2013-03-17 11:43:00,
2013-03-17 04:52:00,60.0,45.0,-100.00,SSW,193,4.0,9.0,58,0.00,,,0.00,1.000000,,2013-03-17 11:52:00,
2013-03-17 05:02:00,60.0,45.0,-100.00,SSW,193,4.0,9.0,58,0.00,,,0.00,1.000000,,2013-03-17 12:02:00,
2013-03-17 05:12:00,60.0,45.0,-100.00,SSW,193,4.0,9.0,58,0.00,,,0.00,1.000000,,2013-03-17 12:12:00,
2013-03-17 05:43:00,59.0,45.0,-100.00,East,97,3.0,11.0,59,0.00,,,0.00,1.000000,,2013-03-17 12:43:00,
2013-03-17 05:52:00,59.0,45.0,-100.00,East,97,3.0,11.0,59,0.00,,,0.00,1.000000,,2013-03-17 12:52:00,
2013-03-17 06:01:00,59.0,45.0,-100.00,East,97,3.0,11.0,59,0.00,,,0.00,1.000000,,2013-03-17 13:01:00,
2013-03-17 06:12:00,59.0,45.0,-100.00,East,97,3.0,11.0,59,0.00,,,0.00,1.000000,,2013-03-17 13:12:00,
2013-03-17 06:43:00,59.0,43.0,-100.00,ENE,64,7.0,11.0,56,0.00,,,0.00,1.000000,,2013-03-17 13:43:00,
2013-03-17 06:52:00,59.0,43.0,-100.00,ENE,64,7.0,11.0,56,0.00,,,0.00,1.000000,,2013-03-17 13:52:00,
2013-03-17 07:02:00,59.0,43.0,-100.00,ENE,64,7.0,11.0,56,0.00,,,0.00,1.000000,,2013-03-17 14:02:00,
2013-03-17 07:11:00,59.0,43.0,-100.00,ENE,64,7.0,11.0,56,0.00,,,0.00,1.000000,,2013-03-17 14:11:00,
2013-03-17 07:42:00,58.0,41.0,-100.00,South,176,4.0,8.0,53,0.00,,,0.00,11.000000,,2013-03-17 14:42:00,
2013-03-17 07:52:00,58.0,41.0,-100.00,South,176,4.0,8.0,53,0.00,,,0.00,11.000000,,2013-03-17 14:52:00,
2013-03-17 08:02:00,58.0,41.0,-100.00,South,176,4.0,8.0,53,0.00,,,0.00,11.000000,,2013-03-17 15:02:00,
2013-03-17 08:11:00,58.0,41.0,-100.00,South,176,4.0,8.0,53,0.00,,,0.00,11.000000,,2013-03-17 15:11:00,
2013-03-17 08:43:00,64.0,43.0,-100.00,SE,134,1.0,11.0,46,0.00,,,0.00,166.000000,,2013-03-17 15:43:00,
2013-03-17 08:53:00,64.0,43.0,-100.00,SE,134,1.0,11.0,46,0.00,,,0.00,166.000000,,2013-03-17 15:53:00,
2013-03-17 09:03:00,64.0,43.0,-100.00,SE,134,1.0,11.0,46,0.00,,,0.00,166.000000,,2013-03-17 16:03:00,
2013-03-17 09:12:00,64.0,43.0,-100.00,SE,134,1.0,11.0,46,0.00,,,0.00,166.000000,,2013-03-17 16:12:00,
2013-03-17 09:43:00,69.0,47.0,-100.00,SW,230,1.0,6.0,45,0.00,,,0.00,395.000000,,2013-03-17 16:43:00,
2013-03-17 09:52:00,69.0,47.0,-100.00,SW,230,1.0,6.0,45,0.00,,,0.00,395.000000,,2013-03-17 16:52:00,
2013-03-17 10:02:00,69.0,47.0,-100.00,SW,230,1.0,6.0,45,0.00,,,0.00,395.000000,,2013-03-17 17:02:00,
2013-03-17 10:12:00,69.0,47.0,-100.00,SW,230,1.0,6.0,45,0.00,,,0.00,395.000000,,2013-03-17 17:12:00,
2013-03-17 10:42:00,75.0,49.0,-100.00,West,261,4.0,6.0,40,0.00,,,0.00,612.000000,,2013-03-17 17:42:00,
2013-03-17 10:53:00,75.0,49.0,-100.00,West,261,4.0,6.0,40,0.00,,,0.00,612.000000,,2013-03-17 17:53:00,
2013-03-17 11:02:00,75.0,49.0,-100.00,West,261,4.0,6.0,40,0.00,,,0.00,612.000000,,2013-03-17 18:02:00,
2013-03-17 11:12:00,75.0,49.0,-100.00,West,261,4.0,6.0,40,0.00,,,0.00,612.000000,,2013-03-17 18:12:00,
2013-03-17 11:42:00,79.0,47.0,-100.00,WSW,241,7.0,11.0,32,0.00,,,0.00,787.000000,,2013-03-17 18:42:00,
2013-03-17 11:52:00,79.0,47.0,-100.00,WSW,241,7.0,11.0,32,0.00,,,0.00,787.000000,,2013-03-17 18:52:00,
2013-03-17 12:02:00,79.0,47.0,-100.00,WSW,241,7.0,11.0,32,0.00,,,0.00,787.000000,,2013-03-17 19:02:00,
2013-03-17 12:12:00,79.0,47.0,-100.00,WSW,241,7.0,11.0,32,0.00,,,0.00,787.000000,,2013-03-17 19:12:00,
2013-03-17 12:42:00,83.0,41.0,-100.00,WSW,246,6.0,11.0,23,0.00,,,0.00,902.000000,,2013-03-17 19:42:00,
2013-03-17 12:53:00,83.0,41.0,-100.00,WSW,246,6.0,11.0,23,0.00,,,0.00,902.000000,,2013-03-17 19:53:00,
2013-03-17 13:02:00,83.0,41.0,-100.00,WSW,246,6.0,11.0,23,0.00,,,0.00,902.000000,,2013-03-17 20:02:00,
2013-03-17 13:12:00,83.0,41.0,-100.00,WSW,246,6.0,11.0,23,0.00,,,0.00,902.000000,,2013-03-17 20:12:00,
2013-03-17 13:42:00,86.0,39.0,-100.00,West,265,7.0,13.0,19,0.00,,,0.00,932.000000,,2013-03-17 20:42:00,
2013-03-17 13:52:00,86.0,39.0,-100.00,West,265,7.0,13.0,19,0.00,,,0.00,932.000000,,2013-03-17 20:52:00,
2013-03-17 14:02:00,86.0,39.0,-100.00,West,265,7.0,13.0,19,0.00,,,0.00,932.000000,,2013-03-17 21:02:00,
2013-03-17 14:12:00,86.0,39.0,-100.00,West,265,7.0,13.0,19,0.00,,,0.00,932.000000,,2013-03-17 21:12:00,
2013-03-17 14:43:00,87.0,38.0,-100.00,WSW,243,8.0,13.0,18,0.00,,,0.00,883.000000,,2013-03-17 21:43:00,
2013-03-17 14:52:00,87.0,38.0,-100.00,WSW,243,8.0,13.0,18,0.00,,,0.00,883.000000,,2013-03-17 21:52:00,
2013-03-17 15:02:00,87.0,38.0,-100.00,WSW,243,8.0,13.0,18,0.00,,,0.00,883.000000,,2013-03-17 22:02:00,
2013-03-17 15:12:00,87.0,38.0,-100.00,WSW,243,8.0,13.0,18,0.00,,,0.00,883.000000,,2013-03-17 22:12:00,
2013-03-17 15:42:00,89.0,37.0,-100.00,West,260,8.0,14.0,16,0.00,,,0.00,801.000000,,2013-03-17 22:42:00,
2013-03-17 15:52:00,89.0,37.0,-100.00,West,260,8.0,14.0,16,0.00,,,0.00,801.000000,,2013-03-17 22:52:00,
2013-03-17 16:02:00,89.0,37.0,-100.00,West,260,8.0,14.0,16,0.00,,,0.00,801.000000,,2013-03-17 23:02:00,
2013-03-17 16:12:00,89.0,37.0,-100.00,West,260,8.0,14.0,16,0.00,,,0.00,801.000000,,2013-03-17 23:12:00,
2013-03-17 16:43:00,89.0,37.0,-100.00,SW,214,11.0,15.0,16,0.00,,,0.00,623.000000,,2013-03-17 23:43:00,
2013-03-17 16:52:00,89.0,37.0,-100.00,SW,214,11.0,15.0,16,0.00,,,0.00,623.000000,,2013-03-17 23:52:00,
2013-03-17 17:02:00,89.0,37.0,-100.00,SW,214,11.0,15.0,16,0.00,,,0.00,623.000000,,2013-03-18 00:02:00,
2013-03-17 17:42:00,88.0,36.0,-100.00,SW,216,9.0,14.0,16,0.00,,,0.00,423.000000,,2013-03-18 00:42:00,
2013-03-17 17:52:00,88.0,36.0,-100.00,SW,216,9.0,14.0,16,0.00,,,0.00,423.000000,,2013-03-18 00:52:00,
2013-03-17 18:01:00,88.0,36.0,-100.00,SW,216,9.0,14.0,16,0.00,,,0.00,423.000000,,2013-03-18 01:01:00,
2013-03-17 18:12:00,88.0,36.0,-100.00,SW,216,9.0,14.0,16,0.00,,,0.00,423.000000,,2013-03-18 01:12:00,
2013-03-17 18:42:00,84.0,39.0,-100.00,SW,216,6.0,11.0,20,0.00,,,0.00,181.000000,,2013-03-18 01:42:00,
2013-03-17 18:52:00,84.0,39.0,-100.00,SW,216,6.0,11.0,20,0.00,,,0.00,181.000000,,2013-03-18 01:52:00,
2013-03-17 19:02:00,84.0,39.0,-100.00,SW,216,6.0,11.0,20,0.00,,,0.00,181.000000,,2013-03-18 02:02:00,
2013-03-17 19:12:00,84.0,39.0,-100.00,SW,216,6.0,11.0,20,0.00,,,0.00,181.000000,,2013-03-18 02:12:00,
2013-03-17 19:42:00,78.0,42.0,-100.00,SSW,202,5.0,8.0,28,0.00,,,0.00,31.000000,,2013-03-18 02:42:00,
2013-03-17 19:52:00,78.0,42.0,-100.00,SSW,202,5.0,8.0,28,0.00,,,0.00,31.000000,,2013-03-18 02:52:00,
2013-03-17 20:02:00,78.0,42.0,-100.00,SSW,202,5.0,8.0,28,0.00,,,0.00,31.000000,,2013-03-18 03:02:00,
2013-03-17 20:11:00,78.0,42.0,-100.00,SSW,202,5.0,8.0,28,0.00,,,0.00,31.000000,,2013-03-18 03:11:00,
2013-03-17 20:42:00,77.0,38.0,-100.00,SSW,200,4.0,6.0,25,0.00,,,0.00,1.000000,,2013-03-18 03:42:00,
2013-03-17 20:53:00,77.0,38.0,-100.00,SSW,200,4.0,6.0,25,0.00,,,0.00,1.000000,,2013-03-18 03:53:00,
2013-03-17 21:02:00,77.0,38.0,-100.00,SSW,200,4.0,6.0,25,0.00,,,0.00,1.000000,,2013-03-18 04:02:00,
2013-03-17 21:12:00,77.0,38.0,-100.00,SSW,200,4.0,6.0,25,0.00,,,0.00,1.000000,,2013-03-18 04:12:00,
2013-03-17 21:42:00,73.0,36.0,-100.00,SSW,199,3.0,5.0,26,0.00,,,0.00,1.000000,,2013-03-18 04:42:00,
2013-03-17 21:52:00,73.0,36.0,-100.00,SSW,199,3.0,5.0,26,0.00,,,0.00,1.000000,,2013-03-18 04:52:00,
2013-03-17 22:02:00,73.0,36.0,-100.00,SSW,199,3.0,5.0,26,0.00,,,0.00,1.000000,,2013-03-18 05:02:00,
2013-03-17 22:12:00,73.0,36.0,-100.00,SSW,199,3.0,5.0,26,0.00,,,0.00,1.000000,,2013-03-18 05:12:00,
2013-03-17 22:43:00,68.0,50.0,-100.00,SE,145,8.0,13.0,53,0.00,,,-99.99,1.000000,,2013-03-18 05:43:00,
2013-03-17 22:52:00,68.0,50.0,-100.00,SE,145,8.0,13.0,53,0.00,,,-99.99,1.000000,,2013-03-18 05:52:00,
2013-03-17 23:02:00,68.0,50.0,-100.00,SE,145,8.0,13.0,53,0.00,,,-99.99,1.000000,,2013-03-18 06:02:00,
2013-03-17 23:12:00,68.0,50.0,-100.00,SE,145,8.0,13.0,53,0.00,,,-99.99,1.000000,,2013-03-18 06:12:00,
2013-03-17 23:42:00,66.0,45.0,-100.00,SE,137,9.0,12.0,47,0.00,,,0.00,1.000000,,2013-03-18 06:42:00,
2013-03-17 23:52:00,66.0,45.0,-100.00,SE,137,9.0,12.0,47,0.00,,,0.00,1.000000,,2013-03-18 06:52:00,